TimeEDT,TemperatureF,Dew PointF,Humidity,Sea Level PressureIn,VisibilityMPH,Wind Direction,Wind SpeedMPH,Gust SpeedMPH,PrecipitationIn,Events,Conditions,WindDirDegrees,DateUTC
1:53 AM,61.0,59.0,93,29.99,9.0,WSW,4.6,-,N/A,,Mostly Cloudy,240,2014-03-23 05:53:00
2:53 AM,63.0,61.0,93,29.96,10.0,WSW,4.6,-,N/A,,Partly Cloudy,250,2014-03-23 06:53:00
3:35 AM,60.1,57.9,93,29.94,1.5,Calm,Calm,-,N/A,,Partly Cloudy,0,2014-03-23 07:35:00
3:37 AM,59.0,57.9,96,29.94,0.8,Calm,Calm,-,N/A,,Mist,0,2014-03-23 07:37:00
3:53 AM,57.9,57.0,97,29.94,0.2,Calm,Calm,-,N/A,Fog,Fog,0,2014-03-23 07:53:00
4:07 AM,57.0,55.9,96,29.94,0.5,Calm,Calm,-,N/A,Fog,Fog,0,2014-03-23 08:07:00
4:19 AM,57.9,57.0,97,29.94,0.2,Calm,Calm,-,N/A,Fog,Fog,0,2014-03-23 08:19:00
4:26 AM,57.9,57.0,97,29.94,0.2,Calm,Calm,-,N/A,Fog,Fog,0,2014-03-23 08:26:00
4:46 AM,57.0,57.0,100,29.93,0.8,Calm,Calm,-,N/A,,Mist,0,2014-03-23 08:46:00
4:53 AM,57.9,57.0,97,29.94,1.0,WNW,3.5,-,N/A,,Mist,290,2014-03-23 08:53:00
5:04 AM,57.0,55.9,96,29.93,0.8,NW,3.5,-,N/A,,Mist,320,2014-03-23 09:04:00
5:20 AM,57.9,57.0,97,29.93,1.2,Calm,Calm,-,N/A,,Partly Cloudy,0,2014-03-23 09:20:00
5:27 AM,57.9,57.0,97,29.93,0.8,Calm,Calm,-,N/A,,Mist,0,2014-03-23 09:27:00
5:34 AM,57.9,57.0,97,29.93,0.2,Calm,Calm,-,N/A,Fog,Fog,0,2014-03-23 09:34:00
5:53 AM,57.9,57.0,97,29.93,0.2,NW,3.5,-,N/A,Fog,Fog,310,2014-03-23 09:53:00
6:53 AM,59.0,59.0,100,29.93,0.2,West,4.6,-,N/A,Fog,Fog,280,2014-03-23 10:53:00
7:53 AM,59.0,59.0,100,29.94,0.2,NW,3.5,-,N/A,Fog,Fog,310,2014-03-23 11:53:00
8:43 AM,60.1,59.0,96,29.93,0.5,West,3.5,-,N/A,Fog,Fog,270,2014-03-23 12:43:00
8:53 AM,60.1,59.0,96,29.94,0.5,Calm,Calm,-,N/A,Fog,Fog,0,2014-03-23 12:53:00
9:02 AM,60.1,59.0,96,29.94,2.0,Variable,3.5,-,N/A,,Overcast,0,2014-03-23 13:02:00
9:36 AM,62.1,60.1,93,29.94,5.0,Calm,Calm,-,N/A,,Mist,0,2014-03-23 13:36:00
9:53 AM,62.1,61.0,96,29.95,7.0,Calm,Calm,-,N/A,,Clear,0,2014-03-23 13:53:00
10:53 AM,66.9,59.0,76,29.95,7.0,Variable,4.6,-,N/A,,Clear,0,2014-03-23 14:53:00
11:19 AM,61.0,57.9,90,29.95,2.0,South,6.9,-,N/A,,Clear,170,2014-03-23 15:19:00
11:26 AM,61.0,57.9,90,29.95,2.0,South,5.8,-,N/A,,Scattered Clouds,180,2014-03-23 15:26:00
11:38 AM,62.1,57.9,86,29.95,7.0,South,3.5,-,N/A,,Clear,190,2014-03-23 15:38:00
11:53 AM,62.1,57.0,84,29.95,7.0,South,5.8,-,N/A,,Clear,180,2014-03-23 15:53:00
12:53 PM,62.1,55.9,80,29.93,5.0,SE,8.1,-,N/A,,Haze,140,2014-03-23 16:53:00
1:03 PM,60.1,55.9,86,29.92,2.0,South,5.8,-,N/A,,Scattered Clouds,170,2014-03-23 17:03:00
1:53 PM,57.9,55.0,90,29.91,2.0,South,5.8,-,N/A,,Overcast,180,2014-03-23 17:53:00
2:28 PM,59.0,55.0,87,29.89,2.0,SSE,6.9,-,N/A,,Mostly Cloudy,160,2014-03-23 18:28:00
2:41 PM,57.9,55.0,90,29.88,2.0,South,4.6,-,N/A,,Mostly Cloudy,180,2014-03-23 18:41:00
2:53 PM,59.0,55.0,87,29.88,2.0,Variable,3.5,-,N/A,,Mostly Cloudy,0,2014-03-23 18:53:00
3:20 PM,59.0,55.0,87,29.87,10.0,Calm,Calm,-,N/A,,Scattered Clouds,0,2014-03-23 19:20:00
3:53 PM,64.0,57.0,78,29.87,10.0,Calm,Calm,-,N/A,,Partly Cloudy,0,2014-03-23 19:53:00
4:53 PM,66.0,57.0,73,29.86,5.0,NNE,11.5,-,0.00,Rain,Light Rain,20,2014-03-23 20:53:00
5:53 PM,62.1,48.0,60,29.89,10.0,North,9.2,-,0.00,,Overcast,10,2014-03-23 21:53:00
6:53 PM,57.9,45.0,62,29.94,10.0,NNE,15.0,-,N/A,,Overcast,20,2014-03-23 22:53:00
7:53 PM,54.0,42.1,64,29.98,10.0,North,12.7,-,N/A,,Overcast,360,2014-03-23 23:53:00
8:53 PM,48.9,39.9,71,30.03,10.0,NNE,16.1,25.3,N/A,,Overcast,20,2014-03-24 00:53:00
9:53 PM,48.9,39.9,71,30.06,10.0,North,9.2,-,N/A,,Overcast,10,2014-03-24 01:53:00
10:53 PM,48.0,39.0,71,30.09,10.0,North,15.0,-,N/A,,Overcast,360,2014-03-24 02:53:00
11:53 PM,46.0,39.0,76,30.10,10.0,North,9.2,-,N/A,,Mostly Cloudy,10,2014-03-24 03:53:00